GAOFEN-3

Last updated on Sat Oct 25 2025 00:02:32 GMT+0000 (Coordinated Universal Time)

1 41727U 16049A 25297.68488265 .00000110 00000+0 46721-4 0 9998 2 41727 98.4057 304.0120 0001451 107.9512 252.1836 14.42216317484703
UTC large
Height (km)
Speed (km/s)
/
Latitude / Longitude
Inclination (degrees)
Orbital Period (minutes)
Azimuth
Elevation
Range (km)
Doppler Factor

Next 0 passes for location: London (51.5072 / 0.1276)

Sorry there are no passes over London.